Previsão horária em Abaeté

Hoje, 29 Outubro, Quinta-feira

Tempo Temperatura Precipitação Vento Pressão Humidade
00:00 +26°C° 0 mm 1 m/s 703 mmHg 75%
01:00 +25°C° 0 mm 1 m/s 703 mmHg 77%
02:00 +23°C° 0 mm 0 m/s 703 mmHg 79%
03:00 +23°C° 0 mm 0 m/s 703 mmHg 80%
04:00 +23°C° 0.1 mm 0 m/s 703 mmHg 80%
05:00 +23°C° 0.1 mm 0 m/s 704 mmHg 81%
06:00 +23°C° 0.1 mm 0 m/s 704 mmHg 81%
07:00 +25°C° 0 mm 0 m/s 705 mmHg 74%
08:00 +27°C° 0 mm 0 m/s 705 mmHg 66%
09:00 +30°C° 0 mm 2 m/s 706 mmHg 60%
10:00 +31°C° 0.1 mm 2 m/s 706 mmHg 56%
11:00 +33°C° 0.1 mm 3 m/s 706 mmHg 53%
12:00 +34°C° 0.1 mm 3 m/s 705 mmHg 49%
13:00 +34°C° 0.1 mm 3 m/s 705 mmHg 47%
14:00 +34°C° 0.1 mm 2 m/s 704 mmHg 46%
15:00 +35°C° 0.1 mm 2 m/s 703 mmHg 45%
16:00 +32°C° 0 mm 2 m/s 703 mmHg 49%
17:00 +31°C° 0 mm 2 m/s 703 mmHg 54%
18:00 +30°C° 0 mm 1 m/s 703 mmHg 59%
19:00 +29°C° 0.3 mm 1 m/s 703 mmHg 63%
20:00 +28°C° 0.3 mm 1 m/s 704 mmHg 67%
21:00 +27°C° 0.3 mm 2 m/s 704 mmHg 71%
22:00 +27°C° 0.9 mm 1 m/s 704 mmHg 75%
23:00 +26°C° 0.9 mm 1 m/s 704 mmHg 78%

Amanhã, 30 Outubro, Sexta-feira

Tempo Temperatura Precipitação Vento Pressão Humidade
00:00 +26°C° 0.9 mm 1 m/s 704 mmHg 81%
01:00 +25°C° 1.2 mm 1 m/s 704 mmHg 83%
02:00 +25°C° 1.2 mm 1 m/s 704 mmHg 86%
03:00 +24°C° 1.2 mm 1 m/s 703 mmHg 88%
04:00 +24°C° 2.2 mm 1 m/s 704 mmHg 89%
05:00 +24°C° 2.2 mm 1 m/s 704 mmHg 90%
06:00 +23°C° 2.2 mm 2 m/s 704 mmHg 91%
07:00 +23°C° 0.6 mm 2 m/s 705 mmHg 91%
08:00 +24°C° 0.6 mm 2 m/s 705 mmHg 92%
09:00 +24°C° 0.6 mm 2 m/s 705 mmHg 92%
10:00 +24°C° 0 mm 1 m/s 705 mmHg 88%
11:00 +25°C° 0 mm 1 m/s 705 mmHg 85%
12:00 +26°C° 0 mm 1 m/s 705 mmHg 81%
13:00 +27°C° 0.5 mm 1 m/s 704 mmHg 78%
14:00 +28°C° 0.5 mm 2 m/s 704 mmHg 74%
15:00 +28°C° 0.5 mm 2 m/s 703 mmHg 71%
16:00 +27°C° 2 mm 2 m/s 703 mmHg 77%
17:00 +26°C° 2 mm 2 m/s 704 mmHg 83%
18:00 +25°C° 2 mm 1 m/s 704 mmHg 89%
19:00 +24°C° 3.6 mm 1 m/s 704 mmHg 91%
20:00 +24°C° 3.6 mm 2 m/s 704 mmHg 93%
21:00 +23°C° 3.6 mm 2 m/s 705 mmHg 96%
22:00 +23°C° 2.5 mm 2 m/s 705 mmHg 96%
23:00 +23°C° 2.5 mm 2 m/s 704 mmHg 96%

Depois de amanhã, 31 Outubro, Sábado

Tempo Temperatura Precipitação Vento Pressão Humidade
00:00 +22°C° 2.5 mm 3 m/s 704 mmHg 96%
01:00 +23°C° 0.4 mm 2 m/s 704 mmHg 96%
02:00 +23°C° 0.4 mm 2 m/s 704 mmHg 95%
03:00 +23°C° 0.4 mm 2 m/s 703 mmHg 95%
04:00 +23°C° 1.7 mm 2 m/s 704 mmHg 96%
05:00 +23°C° 1.7 mm 2 m/s 704 mmHg 96%
06:00 +23°C° 1.7 mm 2 m/s 704 mmHg 96%
07:00 +21°C° 5.1 mm 2 m/s 705 mmHg 97%
08:00 +21°C° 5.1 mm 2 m/s 705 mmHg 97%
09:00 +21°C° 5.1 mm 2 m/s 705 mmHg 97%
10:00 +21°C° 3.5 mm 2 m/s 705 mmHg 97%
11:00 +21°C° 3.5 mm 2 m/s 705 mmHg 97%
12:00 +21°C° 3.5 mm 2 m/s 705 mmHg 96%
13:00 +21°C° 2.4 mm 2 m/s 704 mmHg 96%
14:00 +21°C° 2.4 mm 2 m/s 704 mmHg 96%
15:00 +21°C° 2.4 mm 2 m/s 703 mmHg 96%
16:00 +21°C° 0.6 mm 2 m/s 704 mmHg 95%
17:00 +20°C° 0.6 mm 2 m/s 704 mmHg 95%
18:00 +20°C° 0.6 mm 2 m/s 704 mmHg 95%
19:00 +20°C° 0 mm 2 m/s 704 mmHg 95%
20:00 +20°C° 0 mm 2 m/s 704 mmHg 95%
21:00 +20°C° 0 mm 2 m/s 705 mmHg 95%
22:00 +20°C° 0 mm 2 m/s 705 mmHg 94%
23:00 +20°C° 0 mm 2 m/s 705 mmHg 94%

1 Novembro, Domingo

Tempo Temperatura Precipitação Vento Pressão Humidade
00:00 +20°C° 0 mm 2 m/s 704 mmHg 94%
01:00 +19°C° 0 mm 2 m/s 704 mmHg 94%
02:00 +19°C° 0 mm 2 m/s 704 mmHg 93%
03:00 +19°C° 0 mm 2 m/s 703 mmHg 93%
04:00 +19°C° 0 mm 2 m/s 704 mmHg 93%
05:00 +19°C° 0 mm 2 m/s 704 mmHg 92%
06:00 +19°C° 0 mm 2 m/s 704 mmHg 91%
07:00 +20°C° 0 mm 2 m/s 704 mmHg 88%
08:00 +21°C° 0 mm 2 m/s 705 mmHg 84%
09:00 +23°C° 0 mm 1 m/s 705 mmHg 81%
10:00 +24°C° 0.1 mm 1 m/s 705 mmHg 79%
11:00 +24°C° 0.1 mm 1 m/s 704 mmHg 78%
12:00 +25°C° 0.1 mm 1 m/s 704 mmHg 77%
13:00 +25°C° 0 mm 1 m/s 704 mmHg 76%
14:00 +26°C° 0 mm 1 m/s 703 mmHg 75%
15:00 +26°C° 0 mm 1 m/s 702 mmHg 74%
16:00 +25°C° 0.2 mm 1 m/s 702 mmHg 77%
17:00 +25°C° 0.2 mm 2 m/s 702 mmHg 81%
18:00 +24°C° 0.2 mm 2 m/s 702 mmHg 84%
19:00 +23°C° 0.6 mm 2 m/s 703 mmHg 86%
20:00 +23°C° 0.6 mm 2 m/s 703 mmHg 88%
21:00 +21°C° 0.6 mm 3 m/s 703 mmHg 90%
22:00 +21°C° 0.4 mm 3 m/s 704 mmHg 90%
23:00 +20°C° 0.4 mm 4 m/s 704 mmHg 89%

2 Novembro, Segunda-feira

Tempo Temperatura Precipitação Vento Pressão Humidade
00:00 +19°C° 0.4 mm 4 m/s 704 mmHg 89%
01:00 +19°C° 0.2 mm 4 m/s 703 mmHg 89%
02:00 +18°C° 0.2 mm 4 m/s 703 mmHg 88%
03:00 +18°C° 0.2 mm 4 m/s 703 mmHg 88%
04:00 +18°C° 0 mm 3 m/s 703 mmHg 88%
05:00 +17°C° 0 mm 3 m/s 703 mmHg 88%
06:00 +17°C° 0 mm 2 m/s 704 mmHg 88%
07:00 +18°C° 0 mm 2 m/s 704 mmHg 85%
08:00 +19°C° 0 mm 2 m/s 704 mmHg 82%
09:00 +20°C° 0 mm 2 m/s 705 mmHg 79%
10:00 +21°C° 0 mm 2 m/s 705 mmHg 77%
11:00 +23°C° 0 mm 2 m/s 704 mmHg 75%
12:00 +24°C° 0 mm 2 m/s 704 mmHg 72%
13:00 +24°C° 0 mm 2 m/s 704 mmHg 72%
14:00 +24°C° 0 mm 2 m/s 704 mmHg 72%
15:00 +25°C° 0 mm 2 m/s 703 mmHg 71%
16:00 +24°C° 0 mm 2 m/s 703 mmHg 74%
17:00 +24°C° 0 mm 2 m/s 703 mmHg 77%
18:00 +23°C° 0 mm 2 m/s 703 mmHg 79%
19:00 +21°C° 0.1 mm 2 m/s 704 mmHg 80%
20:00 +21°C° 0.1 mm 2 m/s 704 mmHg 81%
21:00 +20°C° 0.1 mm 2 m/s 704 mmHg 82%
22:00 +20°C° 0.1 mm 2 m/s 705 mmHg 83%
23:00 +19°C° 0.1 mm 2 m/s 705 mmHg 84%

3 Novembro, Terça-feira

Tempo Temperatura Precipitação Vento Pressão Humidade
00:00 +19°C° 0.1 mm 2 m/s 705 mmHg 85%
01:00 +19°C° 0 mm 2 m/s 704 mmHg 84%
02:00 +19°C° 0 mm 2 m/s 704 mmHg 84%
03:00 +19°C° 0 mm 2 m/s 704 mmHg 83%
04:00 +19°C° 0 mm 2 m/s 704 mmHg 84%
05:00 +19°C° 0 mm 1 m/s 705 mmHg 85%
06:00 +19°C° 0 mm 1 m/s 705 mmHg 86%
07:00 +20°C° 0 mm 1 m/s 705 mmHg 82%
08:00 +21°C° 0 mm 1 m/s 706 mmHg 78%
09:00 +22°C° 0 mm 1 m/s 706 mmHg 75%
10:00 +23°C° 0 mm 1 m/s 706 mmHg 74%
11:00 +23°C° 0 mm 1 m/s 706 mmHg 73%
12:00 +24°C° 0 mm 1 m/s 706 mmHg 72%
13:00 +24°C° 0 mm 1 m/s 706 mmHg 74%
14:00 +23°C° 0 mm 1 m/s 705 mmHg 76%
15:00 +23°C° 0 mm 1 m/s 705 mmHg 77%
16:00 +23°C° 0 mm 1 m/s 705 mmHg 79%
17:00 +21°C° 0 mm 2 m/s 705 mmHg 82%
18:00 +21°C° 0 mm 2 m/s 705 mmHg 84%
19:00 +20°C° 0 mm 2 m/s 705 mmHg 86%
20:00 +21°C° 0 mm 1 m/s 706 mmHg 88%
21:00 +20°C° 0 mm 1 m/s 706 mmHg 90%
22:00 +20°C° 0 mm 1 m/s 706 mmHg 88%
23:00 +20°C° 0 mm 1 m/s 706 mmHg 87%
Mostrar mais